Preview of NWS' New Version of Forecast
This preview is not operational and should not be used for support decisions.

Regional Weather Roundup (RWR)

Issued by National Weather Service (NWS)

                            
000
ASUS45 KCYS 190710
RWRWY 

WYOMING REGIONAL WEATHER ROUNDUP
NATIONAL WEATHER SERVICE CHEYENNE WY
100 AM MDT MON AUG 19 2019

NOTE:  "FAIR" INDICATES FEW OR NO CLOUDS BELOW 12,000 FEET
WITH NO SIGNIFICANT WEATHER AND/OR OBSTRUCTIONS TO VISIBILITY.

WYZ001-190800-
...YELLOWSTONE NATIONAL PARK...
  
CITY           SKY/WX    TMP DP  RH WIND       PRES   REMARKS
LK YELLOWSTONE   N/A     42  36  79 NW3       30.21S                  
W YELLOWSTONE  NOT AVBL                                               

$$
WYZ002>013-054>058-071-098>099-190800-
...NORTHERN WYOMING...
  
CITY           SKY/WX    TMP DP  RH WIND       PRES   REMARKS
JACKSON        CLEAR     54  35  48 S3        30.13R                  
CODY           CLEAR     62  36  37 SW5       29.97S                  
GREYBULL       CLEAR     65  42  43 SE6       29.88S                  
WORLAND        PTCLDY    62  40  44 S9        29.91R                  
SHERIDAN       CLEAR     57  48  72 SE3       29.91F                  
BUFFALO        CLEAR     63  45  51 S8        29.99F                  
GILLETTE       CLEAR     61  52  72 S7        29.96R                  
HULETT         FAIR      55  50  82 S5        29.98S                  
NEWCASTLE      FAIR      66  45  45 E8        29.98F                  

$$
WYZ014>020-022>026-101>103-190800-
...CENTRAL WYOMING...
  
CITY           SKY/WX    TMP DP  RH WIND       PRES   REMARKS
BIG PINEY      CLEAR     49  29  46 NE3       30.19S                  
PINEDALE       CLEAR     45  34  65 NW6       30.21S                  
DUBOIS         FAIR      54  28  37 W12       30.15S                  
LANDER         CLEAR     63  34  33 VRB3      30.04F                  
RIVERTON       CLEAR     66  32  28 W6        30.03F                  
CASPER         CLEAR     54  33  45 W8        30.03R                  
DOUGLAS        CLEAR     59  50  72 E6        30.02R                  

$$
WYZ021-027>030-104>119-190800-
...SOUTHERN WYOMING...
  
CITY           SKY/WX    TMP DP  RH WIND       PRES   REMARKS
EVANSTON       CLEAR     62  28  27 SE7       30.18F                  
KEMMERER       CLEAR     55  28  35 N10       30.20S                  
FORT BRIDGER   NOT AVBL                                               
ROCK SPRINGS   CLEAR     65  26  23 S7        30.17S                  
DIXON          FAIR      55  30  38 E17       30.21S                  
RAWLINS        CLEAR     57  24  28 NW6       30.17S                  
SARATOGA       FAIR      54  28  37 SE6       30.21S                  
LARAMIE        CLEAR     54  26  34 S5        30.21S                  
CHEYENNE       CLEAR     61  34  36 CALM      30.11S                  
TORRINGTON     CLEAR     63  60  90 E9        29.97R                  
PINE BLUFFS    FAIR      63  52  67 S10       30.06S                  

$$